Weather Roundup
Issued by NWS

Home | Current Version | Previous Version | Text Only | Print | Product List | Glossary On
Versions: 1 2 3 4 5 6 7 8 9 10 11 12 13 14 15 16 17 18 19 20 21 22 23 24 25 26 27 28 29 30 31 32 33 34 35 36 37 38 39 40 41 42 43 44 45 46 47 48 49 50
000
NZUS93 KARX 270510
HRRWXR

CURRENT HOURLY OBSERVATIONS ACROSS
MUCH OF THE UPPER MISSISSIPPI VALLEY
NATIONAL WEATHER SERVICE LA CROSSE WI
1200 AM CDT THU APR 27 2017


...SOUTHEAST MINNESOTA...


CITY           SKY/WX    TMP DP  RH WIND       PRES   REMARKS
ROCHESTER      LGT RAIN  36  35  96 NW15      29.52F FOG     WCI  27
ROCHESTER/MAYO CLOUDY    37  35  94 W7        29.53F WCI  31
WINONA         CLOUDY    37  37 100 NW9       29.53F FOG     WCI  31
AUSTIN         CLOUDY    36  34  93 NW12G17   29.53F FOG     WCI  27
ALBERT LEA     CLOUDY    34  32  93 NW10G16   29.55F FOG     WCI  26
DODGE CENTER   CLOUDY    36  34  93 NW12      29.54F WCI  27
PRESTON        CLOUDY    36  34  92 NW9       29.53S WCI  29
OWATONNA       DRIZZLE   36  34  93 NW14      29.57F WCI  27
FARIBAULT      CLOUDY    36  34  93 NW7       29.59S FOG     WCI  30
$$

...ELSEWHERE IN MINNESOTA...


CITY           SKY/WX    TMP DP  RH WIND       PRES   REMARKS
MINNEAPOLIS    CLOUDY    36  30  79 N8        29.59R WCI  30
INTNL FALLS    CLOUDY    24  16  71 NE9G22    29.68F WCI  14
DULUTH         CLOUDY    25  22  88 NE9       29.57F WCI  15
RED WING       CLOUDY    37  32  81 NW5       29.56S WCI  34
REDWOOD FALLS  CLOUDY    32  29  88 NW10      29.63S WCI  24
MANKATO        CLOUDY    34  31  88 NW10      29.60F WCI  26
WORTHINGTON    CLOUDY    29  27  92 NW18      29.62F WCI  16
FAIRMONT       CLOUDY    32  30  92 NW16      29.61F WCI  21
$$

...SOUTHWEST WISCONSIN...


CITY           SKY/WX    TMP DP  RH WIND       PRES   REMARKS
LA CROSSE      CLOUDY    43  38  82 N12       29.51F
PRAIRIE DU CHI LGT RAIN  42  37  80 NW9       29.51S
BOSCOBEL       CLOUDY    45  39  79 NW9       29.51S
LONE ROCK      CLOUDY    45  41  86 NW8       29.49S
PLATTEVILLE    CLOUDY    44  42  94 NW12      29.48F
FORT MC COY    CLOUDY    40  38  94 NW5       29.50F
CAMP DOUGLAS   CLOUDY    41  39  94 NW7       29.48F
MAUSTON-NEW LI CLOUDY    42  40  93 NW10      29.48S
VIROQUA        CLOUDY    39  39 100 N8        29.49F WCI  34
WIS DELLS      CLOUDY    43  41  93 NW6       29.46F
$$

...ELSEWHERE IN WISCONSIN...


CITY           SKY/WX    TMP DP  RH WIND       PRES   REMARKS
MILWAUKEE      RAIN      58  56  93 W5        29.44F FOG
MADISON        CLOUDY    48  46  93 NW6       29.44F FOG
GREEN BAY      CLOUDY    52  50  93 W6        29.44S
EAU CLAIRE     CLOUDY    37  33  85 N7        29.52S WCI  32
BLACK RVR FLS  CLOUDY    40  39  99 NW6       29.50F
MEDFORD        CLOUDY    34  33  96 N6        29.49R WCI  29
WAUSAU         CLOUDY    39  35  86 NW9       29.46S WCI  33
WIS RAPIDS     CLOUDY    42  39  89 NW9       29.48F
MARSHFIELD     CLOUDY    39  36  89 N6        29.46F WCI  35
RICE LAKE      CLOUDY    34  30  85 N12       29.57R WCI  25
$$

...NORTHEAST IOWA...


CITY           SKY/WX    TMP DP  RH WIND       PRES   REMARKS
WATERLOO       CLOUDY    40  32  73 NW18      29.53F WCI  31
DUBUQUE        CLOUDY    42  39  89 NW15      29.47F
DECORAH        CLOUDY    39  36  87 VRB8G14   29.51F WCI  34
MASON CITY     CLOUDY    35  33  92 NW16      29.58F FOG     WCI  25
CHARLES CITY   CLOUDY    37  36  93 NW15G22   29.55F WCI  28
OELWEIN        CLOUDY    39  39 100 NW17      29.52F WCI  30
$$

...ELSEWHERE IN IOWA...


CITY           SKY/WX    TMP DP  RH WIND       PRES   REMARKS
DES MOINES     CLOUDY    41  35  79 NW9       29.62R
IOWA CITY      LGT RAIN  44  40  85 NW10      29.53S
FORT DODGE     CLOUDY    36  28  75 NW10G16   29.62F WCI  28
MARSHALLTOWN   CLOUDY    39  36  89 NW12G23   29.56F WCI  32
CEDAR RAPIDS   LGT RAIN  41  41 100 NW15      29.51F
$$

...NORTHERN ILLINOIS...


CITY           SKY/WX    TMP DP  RH WIND       PRES   REMARKS
CHICAGO-OHARE  RAIN      60  58  92 CALM      29.42F FOG
CHICAGO-MIDWAY LGT RAIN  63  61  93 SE7       29.43F FOG
MOLINE         LGT RAIN  46  43  89 NW13      29.47F FOG
ROCKFORD       LGT RAIN  51  49  92 N8        29.44F FOG
PEORIA         LGT RAIN  51  50  96 N6        29.43F FOG
$$

NOTE: "FAIR" INDICATES FEW OR NO CLOUDS BELOW 12,000 FEET WITH NO
SIGNIFICANT WEATHER AND/OR OBSTRUCTIONS TO VISIBILITY. WIND
SPEEDS ARE IN MILES-PER-HOUR.




USA.gov is the U.S. government's official web portal to all federal, state and local government web resources and services.